Terminal Aerodrome Forecast
Issued by NWS Rapid City, SD

Home | Current Version | Previous Version | Graphics & Text | Print | Product List | Glossary On
Versions: 1 2 3 4 5 6 7 8 9 10 11 12 13 14 15 16 17 18 19
000
FTUS43 KUNR 270700 AAA
TAFRAP
TAF AMD
KRAP 270759Z 2708/2806 VRB05KT 1SM BR BKN003
      TEMPO 2708/2712 5SM BR SCT003 BKN020
     FM271700 15008KT P6SM SCT015 BKN080=

USA.gov is the U.S. government's official web portal to all federal, state and local government web resources and services.